Content
SEND FEEDBACK

Daily
Averages
Monthly
Summary
United States of America

MILAN, MICHIGAN


Home > North America > United States > Michigan
Elevation: 660 feet     Latitude: 42 05N     Longitude: 083 35W

WEATHER
 
SELECT A DAY
Number of Records: 202,585;   Date Range: 1/1/95 - 7/26/14
 
SHARE

PRINT THIS DATA

[ ← Previous Day ]
WEATHER ALMANAC - JULY 18, 2013
[ Next Day → ]
[ °C ]   °F
Weather ElementAverageHighLow
Temperature85.5 °F95 °F (2:53 pm)75 °F (5:53 am)
Dewpoint72.3 °F75.9 °F (12:53 pm)66.9 °F (5:53 pm)
Humidity65.8 %87 % (5:53 am)41 % (5:53 pm)
Barometer30.08 in30.15 in (1:53 am)29.97 in (7:53 pm)
Wind Speed6.2 mph19.6 mph (12:09 pm)
Wind Gust31.1 mph (12:09 pm)
Weather ElementAverage
Visibility8.8 mi
Wind DirectionSSE (160.7 °)

Weather ElementTotal
Precipitation1.84 in
Cooling Degree Days20 (Base 65)
Growing Degree Days35 (Base 50)
Averaged from 27 records on July 18, 2013
WEATHER CONDITIONS BREAKOUT
WIND DIRECTION BREAKOUT
WEATHER BY HOUR - JULY 18, 2013
[ °C ]   °F
Local TimeTemperatureDewpointHumidityBarometerVisibilityWind DirectionWind SpeedGust SpeedPrecipitationEventsConditions
1:53 AM79.0 °F72.0 °F79 %30.15 in10.0 miCalmClear
2:53 AM79.0 °F72.0 °F79 %30.14 in10.0 miWest (280°)5.8 mph0.00 inClear
3:53 AM78.1 °F71.1 °F79 %30.14 in10.0 miCalmClear
4:53 AM75.9 °F70.0 °F82 %30.14 in9.0 miSouth (170°)3.5 mphClear
5:53 AM75.0 °F71.1 °F87 %30.13 in8.0 miSW (230°)4.6 mphClear
6:53 AM77.0 °F70.0 °F79 %30.13 in7.0 miWest (260°)3.5 mphClear
7:53 AM82.0 °F72.0 °F71 %30.14 in10.0 miCalmClear
8:53 AM84.0 °F73.0 °F69 %30.14 in10.0 miSW (220°)3.5 mphClear
9:53 AM87.1 °F73.9 °F65 %30.12 in10.0 miCalmPartly Cloudy
10:53 AM90.0 °F75.0 °F61 %30.12 in10.0 miVariable3.5 mphClear
11:53 AM93.0 °F75.0 °F56 %30.11 in10.0 miSW (220°)8.1 mphMostly Cloudy
12:09 PM80.6 °F71.6 °F74 %30.14 in1.5 miNNW (330°)19.6 mph31.1 mph0.12 inRainHeavy Rain
12:17 PM82.4 °F69.8 °F66 %30.14 in0.5 miEast (90°)8.1 mph23.0 mph0.37 inRainHeavy Rain
12:28 PM86.0 °F69.8 °F58 %30.13 in2.0 miCalm0.45 inRainLight Rain
12:35 PM86.0 °F71.6 °F62 %30.13 in10.0 miCalm0.45 inMostly Cloudy
12:53 PM84.9 °F75.9 °F74 %30.11 in10.0 miEast (100°)4.6 mph0.45 inScattered Clouds
1:53 PM91.0 °F75.9 °F61 %30.08 in10.0 miEast (80°)4.6 mph0.00 inMostly Cloudy
2:53 PM95.0 °F73.9 °F50 %30.06 in10.0 miSW (230°)10.4 mphPartly Cloudy
3:53 PM95.0 °F70.0 °F44 %30.03 in10.0 miWSW (240°)13.8 mphClear
4:53 PM91.9 °F73.0 °F54 %30.01 in10.0 miWest (270°)11.5 mphScattered Clouds
5:53 PM93.9 °F66.9 °F41 %29.99 in10.0 miWest (270°)12.7 mphClear
6:53 PM93.0 °F72.0 °F50 %29.99 in10.0 miWSW (240°)10.4 mphClear
7:53 PM91.0 °F73.0 °F55 %29.97 in10.0 miWSW (240°)8.1 mphClear
8:53 PM87.1 °F73.0 °F63 %29.97 in10.0 miSW (230°)6.9 mphClear
9:53 PM84.0 °F73.9 °F72 %29.97 in10.0 miSSW (210°)5.8 mphClear
10:53 PM84.0 °F73.9 °F72 %29.97 in10.0 miSW (220°)6.9 mphClear
11:53 PM82.9 °F73.9 °F74 %29.97 in10.0 miSSW (210°)10.4 mphClear
Hourly data recorded from KYIP, located miles away from Milan, Michigan







STORIES FROM OUR PARTNERS